Weather History for Seminole, TX

Change the Weather History Date:

Tuesday, May 8, 2012

  Actual Average (KHOB) Record (KHOB)
Temperature  
Mean Temperature 59 °F -  
Max Temperature 66 °F 83 °F 96 °F (2000)
Min Temperature 52 °F 53 °F 41 °F (1951)
Degree Days  
Heating Degree Days 6    
Growing Degree Days 9 (Base 50)    
Moisture  
Dew Point 50 °F    
Average Humidity 73    
Maximum Humidity 94    
Minimum Humidity 54    
Precipitation  
Precipitation 0.16 in - - ()
Sea Level Pressure  
Sea Level Pressure 30.13 in    
Wind  
Wind Speed 10 mph (NE)    
Max Wind Speed 15 mph    
Max Gust Speed 23 mph    
Visibility 10 miles    
Events Rain    
Averages and records for this station are not official NWS values.
T = Trace of Precipitation, MM = Missing Value Source: NWS Daily Summary

Daily Weather History Graph

Daily Weather History Graph

Search for Another Location

Airport:

Trip Planner

Search our weather history database for the weather conditions in past years. The results will help you decide how hot, cold, wet, or windy it might be!

Date:

Astronomy

May. 08, 2012 Rise Set
Actual Time 6:56 AM CDT 8:37 PM CDT
Civil Twilight 6:30 AM CDT 9:04 PM CDT
Nautical Twilight 5:58 AM CDT 9:36 PM CDT
Astronomical Twilight 5:24 AM CDT 10:10 PM CDT
Moon 11:46 PM CDT (5/8) 9:12 AM CDT (5/8)
Length of Visible Light 14h 34m
Length of Day
13h 40m
Waning Gibbous, 90% of the Moon is Illuminated
May 8
Waning Gibbous
May 12
Last Quarter
May 20
New
May 28
First Quarter
Jun 4
Full

Hourly Weather History & Observations

Time (CDT) Temp. Dew Point Humidity Pressure Visibility Wind Dir Wind Speed Gust Speed Precip Events Conditions
12:15 AM 59.0 °F 55.0 °F 87% 30.12 in 10.0 mi ENE 9.2 mph - N/A Rain Light Rain
12:35 AM 58.5 °F 54.5 °F 87% 30.11 in 10.0 mi ENE 11.5 mph - N/A Rain Light Rain
12:55 AM 58.5 °F 54.5 °F 87% 30.11 in 10.0 mi ENE 9.2 mph - N/A Rain Light Rain
1:15 AM 58.3 °F 54.3 °F 87% 30.14 in 10.0 mi WNW 4.6 mph - 0.01 in Rain Light Rain
1:35 AM 57.9 °F 54.9 °F 90% 30.15 in 5.0 mi NNW 12.7 mph 18.4 mph 0.07 in Rain Heavy Rain
1:55 AM 57.4 °F 55.6 °F 94% 30.11 in 7.0 mi NNE 10.4 mph - 0.13 in Rain Light Rain
2:15 AM 57.4 °F 55.4 °F 93% 30.11 in 10.0 mi NNE 13.8 mph 18.4 mph N/A   Scattered Clouds
2:35 AM 57.4 °F 55.0 °F 92% 30.10 in 10.0 mi NE 11.5 mph - N/A   Mostly Cloudy
2:55 AM 57.6 °F 55.4 °F 92% 30.10 in 10.0 mi NNE 10.4 mph 16.1 mph N/A   Overcast
3:15 AM 57.6 °F 55.4 °F 92% 30.11 in 10.0 mi NNE 9.2 mph - N/A   Overcast
3:35 AM 57.7 °F 55.4 °F 92% 30.09 in 10.0 mi NE 10.4 mph - N/A Rain Rain
3:55 AM 57.4 °F 54.9 °F 91% 30.07 in 10.0 mi NE 15.0 mph - N/A Rain Light Rain
4:15 AM 57.2 °F 54.7 °F 91% 30.09 in 10.0 mi NNE 13.8 mph 18.4 mph N/A   Mostly Cloudy
4:35 AM 56.5 °F 53.2 °F 89% 30.09 in 10.0 mi ENE 12.7 mph 23.0 mph N/A   Light Drizzle
4:55 AM 55.4 °F 51.6 °F 87% 30.13 in 10.0 mi ENE 10.4 mph 16.1 mph N/A   Light Drizzle
5:15 AM 55.2 °F 51.6 °F 88% 30.15 in 10.0 mi ESE 8.1 mph - N/A Rain Rain
5:35 AM 54.9 °F 51.4 °F 88% 30.15 in 7.0 mi ENE 8.1 mph - 0.02 in Rain Light Rain
5:55 AM 54.1 °F 51.4 °F 91% 30.13 in 10.0 mi NE 8.1 mph - 0.03 in Rain Light Rain
6:15 AM 53.6 °F 51.4 °F 92% 30.12 in 10.0 mi NE 9.2 mph - N/A   Light Drizzle
6:35 AM 53.4 °F 51.1 °F 92% 30.11 in 10.0 mi NE 12.7 mph 17.3 mph N/A   Scattered Clouds
6:55 AM 52.9 °F 50.0 °F 90% 30.12 in 10.0 mi NE 10.4 mph 17.3 mph N/A   Scattered Clouds
7:15 AM 52.5 °F 49.1 °F 88% 30.13 in 10.0 mi NE 9.2 mph - N/A   Scattered Clouds
7:35 AM 52.2 °F 48.2 °F 86% 30.13 in 10.0 mi ENE 6.9 mph - N/A   Mostly Cloudy
7:55 AM 52.2 °F 47.7 °F 85% 30.14 in 10.0 mi ENE 9.2 mph - N/A   Mostly Cloudy
8:15 AM 52.3 °F 47.7 °F 84% 30.16 in 10.0 mi ENE 8.1 mph - N/A   Mostly Cloudy
8:35 AM 52.7 °F 47.8 °F 84% 30.16 in 10.0 mi ENE 9.2 mph - N/A   Overcast
8:55 AM 52.9 °F 48.0 °F 84% 30.16 in 10.0 mi NE 11.5 mph - N/A   Overcast
9:15 AM 53.4 °F 47.8 °F 81% 30.18 in 10.0 mi NE 9.2 mph - N/A   Mostly Cloudy
9:35 AM 53.6 °F 47.7 °F 80% 30.18 in 10.0 mi NNE 13.8 mph 18.4 mph N/A   Mostly Cloudy
9:55 AM 53.8 °F 47.5 °F 79% 30.18 in 10.0 mi NE 8.1 mph - N/A   Overcast
10:15 AM 55.0 °F 47.7 °F 76% 30.17 in 10.0 mi NE 11.5 mph 18.4 mph N/A   Overcast
10:35 AM 55.6 °F 47.1 °F 73% 30.17 in 10.0 mi NE 15.0 mph 20.7 mph N/A   Overcast
10:55 AM 56.8 °F 47.5 °F 71% 30.17 in 10.0 mi ENE 12.7 mph 19.6 mph N/A   Overcast
11:15 AM 57.9 °F 47.8 °F 69% 30.17 in 10.0 mi ENE 13.8 mph - N/A   Overcast
11:35 AM 58.3 °F 48.0 °F 69% 30.17 in 10.0 mi NE 11.5 mph 20.7 mph N/A   Mostly Cloudy
11:55 AM 59.4 °F 48.6 °F 67% 30.16 in 10.0 mi NE 12.7 mph - N/A   Mostly Cloudy
12:15 PM 60.3 °F 49.1 °F 67% 30.16 in 10.0 mi NNE 9.2 mph 16.1 mph N/A   Scattered Clouds
12:35 PM 61.7 °F 49.8 °F 65% 30.16 in 10.0 mi ENE 9.2 mph - N/A   Clear
12:55 PM 61.9 °F 49.8 °F 65% 30.16 in 10.0 mi ENE 9.2 mph - N/A   Clear
1:15 PM 63.3 °F 50.2 °F 62% 30.16 in 10.0 mi ENE 6.9 mph - N/A   Scattered Clouds
1:35 PM 63.7 °F 50.2 °F 61% 30.16 in 10.0 mi NE 9.2 mph - N/A   Mostly Cloudy
1:55 PM 64.2 °F 50.4 °F 61% 30.16 in 10.0 mi NNE 8.1 mph - N/A   Overcast
2:15 PM 63.3 °F 50.0 °F 62% 30.16 in 10.0 mi NNE 10.4 mph - N/A   Overcast
2:35 PM 63.5 °F 49.6 °F 61% 30.16 in 10.0 mi NNE 10.4 mph - N/A   Overcast
2:55 PM 64.6 °F 49.6 °F 58% 30.15 in 10.0 mi NE 8.1 mph - N/A   Mostly Cloudy
3:15 PM 64.9 °F 49.1 °F 56% 30.15 in 10.0 mi ENE 8.1 mph - N/A   Scattered Clouds
3:35 PM 65.1 °F 49.1 °F 56% 30.13 in 10.0 mi ENE 10.4 mph - N/A   Clear
3:55 PM 65.7 °F 49.5 °F 56% 30.12 in 10.0 mi NE 10.4 mph - N/A   Scattered Clouds
4:15 PM 65.7 °F 49.8 °F 57% 30.11 in 10.0 mi NNE 9.2 mph 16.1 mph N/A   Scattered Clouds
4:35 PM 66.4 °F 49.8 °F 55% 30.10 in 10.0 mi NE 12.7 mph 19.6 mph N/A   Scattered Clouds
4:55 PM 66.0 °F 49.5 °F 55% 30.09 in 10.0 mi NE 13.8 mph 17.3 mph N/A   Scattered Clouds
5:15 PM 65.7 °F 49.3 °F 55% 30.09 in 10.0 mi ENE 13.8 mph - N/A   Scattered Clouds
5:35 PM 65.5 °F 49.3 °F 56% 30.09 in 10.0 mi East 11.5 mph - N/A   Mostly Cloudy
5:55 PM 65.7 °F 49.3 °F 55% 30.09 in 10.0 mi East 11.5 mph 18.4 mph N/A   Scattered Clouds
6:15 PM 65.8 °F 48.7 °F 54% 30.09 in 10.0 mi East 11.5 mph 16.1 mph N/A   Clear
6:35 PM 65.3 °F 48.6 °F 55% 30.09 in 10.0 mi East 9.2 mph - N/A   Clear
6:55 PM 64.9 °F 48.4 °F 55% 30.09 in 10.0 mi East 11.5 mph - N/A   Clear
7:15 PM 64.2 °F 48.6 °F 57% 30.09 in 10.0 mi East 10.4 mph - N/A   Clear
7:35 PM 63.7 °F 48.2 °F 57% 30.09 in 10.0 mi ENE 10.4 mph 17.3 mph N/A   Clear
7:55 PM 63.3 °F 47.7 °F 57% 30.10 in 10.0 mi East 8.1 mph - N/A   Clear
8:15 PM 62.8 °F 47.5 °F 57% 30.11 in 10.0 mi East 6.9 mph - N/A   Clear
8:55 PM 61.5 °F 48.4 °F 62% 30.13 in 10.0 mi ENE 4.6 mph - N/A   Clear
9:15 PM 61.0 °F 49.1 °F 65% 30.14 in 10.0 mi ENE 5.8 mph - N/A   Clear
9:35 PM 60.6 °F 49.1 °F 66% 30.15 in 10.0 mi East 4.6 mph - N/A   Clear
9:55 PM 60.1 °F 49.5 °F 68% 30.16 in 10.0 mi East 4.6 mph - N/A   Clear
10:15 PM 59.4 °F 50.2 °F 72% 30.16 in 10.0 mi NE 4.6 mph - N/A   Scattered Clouds
10:35 PM 59.0 °F 49.8 °F 72% 30.16 in 10.0 mi ENE 6.9 mph - N/A   Clear
10:55 PM 59.0 °F 48.7 °F 69% 30.17 in 10.0 mi ENE 9.2 mph - N/A   Clear
11:15 PM 59.0 °F 47.3 °F 65% 30.17 in 10.0 mi East 6.9 mph - N/A   Clear
11:55 PM 58.1 °F 46.6 °F 65% 30.18 in 10.0 mi East 4.6 mph - N/A   Scattered Clouds